Time,TemperatureF,DewpointF,PressureIn,WindDirection,WindDirectionDegrees,WindSpeedMPH,WindSpeedGustMPH,Humidity,HourlyPrecipIn,Conditions,Clouds,dailyrainin,SoftwareType,DateUTC
2013-06-19 00:02:00,73.1,26.5,29.84,NE,45,0.0,0.7,18,0.00,,,0.00,WUHU216HW,2013-06-19 07:02:00,
2013-06-19 00:12:00,72.9,27.9,29.84,SSW,203,0.4,0.4,19,0.00,,,0.00,WUHU216HW,2013-06-19 07:12:00,
2013-06-19 00:22:00,72.4,30.2,29.84,SW,225,0.0,0.2,21,0.00,,,0.00,WUHU216HW,2013-06-19 07:22:00,
2013-06-19 00:33:00,71.8,29.6,29.84,SW,225,0.2,0.4,21,0.00,,,0.00,WUHU216HW,2013-06-19 07:33:00,
2013-06-19 00:43:00,71.3,31.2,29.83,SSE,158,0.0,1.1,23,0.00,,,0.00,WUHU216HW,2013-06-19 07:43:00,
2013-06-19 00:53:00,70.7,30.8,29.84,SE,135,0.9,1.1,23,0.00,,,0.00,WUHU216HW,2013-06-19 07:53:00,
2013-06-19 01:03:00,70.6,29.6,29.84,SSW,203,0.4,0.4,22,0.00,,,0.00,WUHU216HW,2013-06-19 08:03:00,
2013-06-19 01:13:00,70.4,28.4,29.83,NNW,338,0.0,1.3,21,0.00,,,0.00,WUHU216HW,2013-06-19 08:13:00,
2013-06-19 01:23:00,70.0,29.2,29.83,North,0,0.0,0.4,22,0.00,,,0.00,WUHU216HW,2013-06-19 08:23:00,
2013-06-19 01:33:00,69.5,28.7,29.83,SW,225,0.0,0.4,22,0.00,,,0.00,WUHU216HW,2013-06-19 08:33:00,
2013-06-19 01:43:00,69.3,29.6,29.82,WSW,248,0.2,0.4,23,0.00,,,0.00,WUHU216HW,2013-06-19 08:43:00,
2013-06-19 01:53:00,68.9,30.2,29.82,WSW,248,0.0,0.2,24,0.00,,,0.00,WUHU216HW,2013-06-19 08:53:00,
2013-06-19 02:03:00,68.4,30.8,29.82,SE,135,0.2,0.9,25,0.00,,,0.00,WUHU216HW,2013-06-19 09:03:00,
2013-06-19 02:13:00,68.0,30.5,29.82,WSW,248,0.2,0.9,25,0.00,,,0.00,WUHU216HW,2013-06-19 09:13:00,
2013-06-19 02:23:00,68.0,30.5,29.82,South,180,0.0,0.7,25,0.00,,,0.00,WUHU216HW,2013-06-19 09:23:00,
2013-06-19 02:33:00,67.7,30.3,29.82,SE,135,0.4,1.1,25,0.00,,,0.00,WUHU216HW,2013-06-19 09:33:00,
2013-06-19 02:43:00,67.5,29.1,29.82,SSW,203,0.4,1.1,24,0.00,,,0.00,WUHU216HW,2013-06-19 09:43:00,
2013-06-19 02:53:00,67.5,28.1,29.82,SE,135,0.4,2.0,23,0.00,,,0.00,WUHU216HW,2013-06-19 09:53:00,
2013-06-19 03:03:00,67.5,28.1,29.82,SSE,158,0.0,1.1,23,0.00,,,0.00,WUHU216HW,2013-06-19 10:03:00,
2013-06-19 03:13:00,67.5,28.1,29.82,SE,135,0.2,0.4,23,0.00,,,0.00,WUHU216HW,2013-06-19 10:13:00,
2013-06-19 03:23:00,67.3,27.9,29.82,SW,225,0.0,1.3,23,0.00,,,0.00,WUHU216HW,2013-06-19 10:23:00,
2013-06-19 03:33:00,67.1,27.7,29.82,WSW,248,0.0,0.9,23,0.00,,,0.00,WUHU216HW,2013-06-19 10:33:00,
2013-06-19 03:43:00,67.0,27.6,29.82,SE,135,1.1,1.8,23,0.00,,,0.00,WUHU216HW,2013-06-19 10:43:00,
2013-06-19 03:53:00,67.0,26.6,29.83,WNW,293,0.7,1.6,22,0.00,,,0.00,WUHU216HW,2013-06-19 10:53:00,
2013-06-19 04:04:00,66.6,29.3,29.83,SSW,203,0.2,0.4,25,0.00,,,0.00,WUHU216HW,2013-06-19 11:04:00,
2013-06-19 04:14:00,66.2,30.0,29.83,SSW,203,0.2,1.3,26,0.00,,,0.00,WUHU216HW,2013-06-19 11:14:00,
2013-06-19 04:24:00,65.5,31.4,29.83,SSE,158,0.0,0.4,28,0.00,,,0.00,WUHU216HW,2013-06-19 11:24:00,
2013-06-19 04:34:00,65.3,31.2,29.83,SSE,158,0.4,1.1,28,0.00,,,0.00,WUHU216HW,2013-06-19 11:34:00,
2013-06-19 04:44:00,65.3,32.2,29.83,South,180,0.0,0.0,29,0.00,,,0.00,WUHU216HW,2013-06-19 11:44:00,
2013-06-19 04:54:00,65.0,31.9,29.83,SE,135,0.2,0.7,29,0.00,,,0.00,WUHU216HW,2013-06-19 11:54:00,
2013-06-19 05:04:00,64.6,31.6,29.83,ENE,68,0.2,1.1,29,0.00,,,0.00,WUHU216HW,2013-06-19 12:04:00,
2013-06-19 05:14:00,64.4,31.4,29.83,WSW,248,0.0,1.1,29,0.00,,,0.00,WUHU216HW,2013-06-19 12:14:00,
2013-06-19 05:24:00,64.4,32.4,29.84,West,270,0.0,1.1,30,0.00,,,0.00,WUHU216HW,2013-06-19 12:24:00,
2013-06-19 05:34:00,64.3,32.2,29.84,West,270,0.0,0.9,30,0.00,,,0.00,WUHU216HW,2013-06-19 12:34:00,
2013-06-19 05:44:00,64.1,32.0,29.84,South,180,0.4,1.6,30,0.00,,,0.00,WUHU216HW,2013-06-19 12:44:00,
2013-06-19 05:54:00,64.3,32.2,29.84,ESE,113,0.7,0.7,30,0.00,,,0.00,WUHU216HW,2013-06-19 12:54:00,
2013-06-19 06:04:00,65.2,33.8,29.85,ESE,113,0.0,0.4,31,0.00,,,0.00,WUHU216HW,2013-06-19 13:04:00,
2013-06-19 06:14:00,68.9,36.3,29.85,ENE,68,0.4,0.4,30,0.00,,,0.00,WUHU216HW,2013-06-19 13:14:00,
2013-06-19 06:24:00,70.6,35.7,29.85,North,0,1.1,1.3,28,0.00,,,0.00,WUHU216HW,2013-06-19 13:24:00,
2013-06-19 06:34:00,70.9,34.0,29.85,NE,45,1.1,1.1,26,0.00,,,0.00,WUHU216HW,2013-06-19 13:34:00,
2013-06-19 06:44:00,72.0,32.9,29.86,ENE,68,0.0,0.9,24,0.00,,,0.00,WUHU216HW,2013-06-19 13:44:00,
2013-06-19 06:54:00,73.4,33.1,29.86,NE,45,0.7,1.1,23,0.00,,,0.00,WUHU216HW,2013-06-19 13:54:00,
2013-06-19 07:05:00,74.9,32.2,29.86,NE,45,0.4,1.6,21,0.00,,,0.00,WUHU216HW,2013-06-19 14:05:00,
2013-06-19 07:15:00,76.0,34.1,29.86,NE,45,0.9,1.6,22,0.00,,,0.00,WUHU216HW,2013-06-19 14:15:00,
2013-06-19 07:25:00,76.9,33.9,29.87,NE,45,1.8,2.7,21,0.00,,,0.00,WUHU216HW,2013-06-19 14:25:00,
2013-06-19 07:35:00,77.6,30.1,29.87,NE,45,0.7,2.2,18,0.00,,,0.00,WUHU216HW,2013-06-19 14:35:00,
2013-06-19 07:45:00,78.5,30.8,29.87,WNW,293,0.2,1.8,18,0.00,,,0.00,WUHU216HW,2013-06-19 14:45:00,
2013-06-19 07:55:00,79.6,31.7,29.87,SSW,203,0.2,1.1,18,0.00,,,0.00,WUHU216HW,2013-06-19 14:55:00,
2013-06-19 08:05:00,80.8,31.1,29.87,WNW,293,0.9,1.3,17,0.00,,,0.00,WUHU216HW,2013-06-19 15:05:00,
2013-06-19 08:15:00,82.4,32.4,29.87,ENE,68,0.4,1.1,17,0.00,,,0.00,WUHU216HW,2013-06-19 15:15:00,
2013-06-19 08:25:00,83.7,31.6,29.87,North,0,2.2,2.2,16,0.00,,,0.00,WUHU216HW,2013-06-19 15:25:00,
2013-06-19 08:35:00,85.3,29.5,29.87,North,0,2.9,3.6,14,0.00,,,0.00,WUHU216HW,2013-06-19 15:35:00,
2013-06-19 08:45:00,86.9,29.1,29.86,NNE,23,2.2,3.8,13,0.00,,,0.00,WUHU216HW,2013-06-19 15:45:00,
2013-06-19 08:55:00,88.4,30.3,29.86,NW,315,2.5,2.5,13,0.00,,,0.00,WUHU216HW,2013-06-19 15:55:00,
2013-06-19 09:05:00,89.5,31.1,29.86,West,270,1.3,2.0,13,0.00,,,0.00,WUHU216HW,2013-06-19 16:05:00,
2013-06-19 09:15:00,90.5,31.9,29.86,East,90,0.9,2.5,13,0.00,,,0.00,WUHU216HW,2013-06-19 16:15:00,
2013-06-19 09:25:00,91.6,32.8,29.86,NE,45,2.9,2.9,13,0.00,,,0.00,WUHU216HW,2013-06-19 16:25:00,
2013-06-19 09:35:00,92.5,33.4,29.86,ESE,113,1.3,1.8,13,0.00,,,0.00,WUHU216HW,2013-06-19 16:35:00,
2013-06-19 09:45:00,92.9,31.9,29.85,SW,225,2.5,2.9,12,0.00,,,0.00,WUHU216HW,2013-06-19 16:45:00,
2013-06-19 09:56:00,94.0,32.8,29.85,NNW,338,1.1,4.5,12,0.00,,,0.00,WUHU216HW,2013-06-19 16:56:00,
2013-06-19 10:06:00,94.7,33.3,29.85,WSW,248,2.9,2.9,12,0.00,,,0.00,WUHU216HW,2013-06-19 17:06:00,
2013-06-19 10:16:00,95.8,34.1,29.85,West,270,2.5,2.7,12,0.00,,,0.00,WUHU216HW,2013-06-19 17:16:00,
2013-06-19 10:26:00,96.1,34.4,29.85,NW,315,3.6,5.6,12,0.00,,,0.00,WUHU216HW,2013-06-19 17:26:00,
2013-06-19 10:36:00,96.5,32.9,29.85,ENE,68,2.2,6.3,11,0.00,,,0.00,WUHU216HW,2013-06-19 17:36:00,
2013-06-19 10:46:00,96.5,32.9,29.85,East,90,2.0,4.0,11,0.00,,,0.00,WUHU216HW,2013-06-19 17:46:00,
2013-06-19 10:56:00,97.0,31.5,29.84,ENE,68,3.1,7.2,10,0.00,,,0.00,WUHU216HW,2013-06-19 17:56:00,
2013-06-19 11:06:00,97.6,31.9,29.84,North,0,6.0,6.5,10,0.00,,,0.00,WUHU216HW,2013-06-19 18:06:00,
2013-06-19 11:16:00,97.7,32.0,29.84,NNW,338,3.6,7.6,10,0.00,,,0.00,WUHU216HW,2013-06-19 18:16:00,
2013-06-19 11:26:00,98.6,34.6,29.84,North,0,5.6,5.6,11,0.00,,,0.00,WUHU216HW,2013-06-19 18:26:00,
2013-06-19 11:36:00,99.5,33.5,29.83,West,270,2.5,9.8,10,0.00,,,0.00,WUHU216HW,2013-06-19 18:36:00,
2013-06-19 11:46:00,100.1,33.9,29.83,WNW,293,2.5,8.3,10,0.00,,,0.00,WUHU216HW,2013-06-19 18:46:00,
2013-06-19 11:56:00,100.8,34.5,29.82,WSW,248,2.9,3.6,10,0.00,,,0.00,WUHU216HW,2013-06-19 18:56:00,
2013-06-19 12:06:00,101.9,35.2,29.82,West,270,6.3,6.3,8,0.00,,,0.00,WUHU216HW,2013-06-19 19:06:00,
2013-06-19 12:16:00,102.6,35.7,29.81,SSW,203,0.9,4.7,8,0.00,,,0.00,WUHU216HW,2013-06-19 19:16:00,
2013-06-19 12:26:00,102.6,35.7,29.81,West,270,5.4,5.4,10,0.00,,,0.00,WUHU216HW,2013-06-19 19:26:00,
2013-06-19 12:36:00,103.0,36.0,29.81,West,270,6.9,8.3,8,0.00,,,0.00,WUHU216HW,2013-06-19 19:36:00,
2013-06-19 12:46:00,103.5,36.5,29.81,NNW,338,5.8,7.6,8,0.00,,,0.00,WUHU216HW,2013-06-19 19:46:00,
2013-06-19 12:57:00,104.0,36.9,29.81,WNW,293,4.0,9.4,8,0.00,,,0.00,WUHU216HW,2013-06-19 19:57:00,
2013-06-19 13:07:00,104.2,37.0,29.80,NW,315,1.8,6.0,8,0.00,,,0.00,WUHU216HW,2013-06-19 20:07:00,
2013-06-19 13:17:00,104.0,36.9,29.80,NNW,338,6.0,7.4,7,0.00,,,0.00,WUHU216HW,2013-06-19 20:17:00,
2013-06-19 13:27:00,104.0,36.9,29.80,NW,315,4.7,8.7,7,0.00,,,0.00,WUHU216HW,2013-06-19 20:27:00,
2013-06-19 13:37:00,104.0,36.9,29.80,NW,315,2.0,7.6,7,0.00,,,0.00,WUHU216HW,2013-06-19 20:37:00,
2013-06-19 13:47:00,103.9,36.7,29.80,NNW,338,8.7,8.7,6,0.00,,,0.00,WUHU216HW,2013-06-19 20:47:00,
2013-06-19 13:57:00,104.0,36.9,29.79,NNE,23,3.1,9.8,6,0.00,,,0.00,WUHU216HW,2013-06-19 20:57:00,
2013-06-19 14:07:00,103.9,36.7,29.79,ESE,113,6.3,9.6,6,0.00,,,0.00,WUHU216HW,2013-06-19 21:07:00,
2013-06-19 14:17:00,104.2,37.0,29.78,NNE,23,8.1,8.3,6,0.00,,,0.00,WUHU216HW,2013-06-19 21:17:00,
2013-06-19 14:27:00,104.2,37.0,29.78,NE,45,1.3,6.9,6,0.00,,,0.00,WUHU216HW,2013-06-19 21:27:00,
2013-06-19 14:37:00,104.6,37.3,29.78,NNW,338,4.5,7.2,6,0.00,,,0.00,WUHU216HW,2013-06-19 21:37:00,
2013-06-19 14:47:00,105.1,37.6,29.77,SSW,203,3.1,5.1,7,0.00,,,0.00,WUHU216HW,2013-06-19 21:47:00,
2013-06-19 14:57:00,106.2,38.4,29.77,West,270,6.7,10.7,6,0.00,,,0.00,WUHU216HW,2013-06-19 21:57:00,
2013-06-19 15:07:00,105.7,38.1,29.77,West,270,3.8,9.8,6,0.00,,,0.00,WUHU216HW,2013-06-19 22:07:00,
2013-06-19 15:17:00,105.5,37.9,29.76,NW,315,7.6,9.4,5,0.00,,,0.00,WUHU216HW,2013-06-19 22:17:00,
2013-06-19 15:27:00,105.7,38.1,29.76,West,270,5.4,9.8,5,0.00,,,0.00,WUHU216HW,2013-06-19 22:27:00,
2013-06-19 15:37:00,105.5,37.9,29.76,NW,315,9.8,9.8,5,0.00,,,0.00,WUHU216HW,2013-06-19 22:37:00,
2013-06-19 15:47:00,105.5,37.9,29.76,NW,315,8.7,13.2,5,0.00,,,0.00,WUHU216HW,2013-06-19 22:47:00,
2013-06-19 15:57:00,105.5,37.9,29.76,NW,315,5.4,12.1,5,0.00,,,0.00,WUHU216HW,2013-06-19 22:57:00,
2013-06-19 16:07:00,105.3,37.8,29.76,West,270,3.8,13.0,3,0.00,,,0.00,WUHU216HW,2013-06-19 23:07:00,
2013-06-19 16:18:00,105.3,37.8,29.76,WNW,293,4.7,8.1,3,0.00,,,0.00,WUHU216HW,2013-06-19 23:18:00,
2013-06-19 16:28:00,104.9,37.5,29.75,NW,315,8.1,10.5,3,0.00,,,0.00,WUHU216HW,2013-06-19 23:28:00,
2013-06-19 16:38:00,104.8,37.5,29.75,NNW,338,6.9,12.3,3,0.00,,,0.00,WUHU216HW,2013-06-19 23:38:00,
2013-06-19 16:48:00,104.4,37.2,29.75,NNW,338,6.7,11.9,3,0.00,,,0.00,WUHU216HW,2013-06-19 23:48:00,
2013-06-19 16:58:00,104.0,36.9,29.75,NNW,338,2.9,9.8,3,0.00,,,0.00,WUHU216HW,2013-06-19 23:58:00,
2013-06-19 17:08:00,104.0,36.9,29.75,NNW,338,4.7,7.8,3,0.00,,,0.00,WUHU216HW,2013-06-20 00:08:00,
2013-06-19 17:18:00,103.7,36.6,29.75,West,270,2.2,7.8,3,0.00,,,0.00,WUHU216HW,2013-06-20 00:18:00,
2013-06-19 17:28:00,103.5,36.5,29.75,West,270,6.5,7.6,3,0.00,,,0.00,WUHU216HW,2013-06-20 00:28:00,
2013-06-19 17:38:00,103.1,36.2,29.75,NNE,23,4.7,9.8,3,0.00,,,0.00,WUHU216HW,2013-06-20 00:38:00,
2013-06-19 17:48:00,102.8,35.9,29.75,NW,315,6.3,10.1,3,0.00,,,0.00,WUHU216HW,2013-06-20 00:48:00,
2013-06-19 17:58:00,102.6,35.7,29.75,NW,315,4.0,9.6,3,0.00,,,0.00,WUHU216HW,2013-06-20 00:58:00,
2013-06-19 18:08:00,102.2,35.5,29.76,WSW,248,2.9,7.6,3,0.00,,,0.00,WUHU216HW,2013-06-20 01:08:00,
2013-06-19 18:18:00,101.9,35.2,29.76,NW,315,4.5,7.6,3,0.00,,,0.00,WUHU216HW,2013-06-20 01:18:00,
2013-06-19 18:28:00,101.3,34.8,29.76,West,270,3.8,5.6,3,0.00,,,0.00,WUHU216HW,2013-06-20 01:28:00,
2013-06-19 18:38:00,100.8,34.5,29.76,WSW,248,5.4,8.1,3,0.00,,,0.00,WUHU216HW,2013-06-20 01:38:00,
2013-06-19 18:48:00,100.4,34.2,29.76,NW,315,3.6,5.4,5,0.00,,,0.00,WUHU216HW,2013-06-20 01:48:00,
2013-06-19 18:58:00,99.7,33.7,29.76,NNW,338,4.7,4.7,5,0.00,,,0.00,WUHU216HW,2013-06-20 01:58:00,
2013-06-19 19:08:00,98.8,33.0,29.76,WNW,293,2.2,3.6,5,0.00,,,0.00,WUHU216HW,2013-06-20 02:08:00,
2013-06-19 19:18:00,97.9,32.2,29.76,West,270,3.4,4.7,5,0.00,,,0.00,WUHU216HW,2013-06-20 02:18:00,
2013-06-19 19:28:00,97.0,31.5,29.76,North,0,1.8,4.7,5,0.00,,,0.00,WUHU216HW,2013-06-20 02:28:00,
2013-06-19 19:39:00,96.3,31.0,29.77,WNW,293,1.6,1.8,6,0.00,,,0.00,WUHU216HW,2013-06-20 02:39:00,
2013-06-19 19:49:00,95.0,30.1,29.77,NW,315,1.6,2.5,6,0.00,,,0.00,WUHU216HW,2013-06-20 02:49:00,
2013-06-19 19:59:00,94.0,29.2,29.77,West,270,0.2,1.3,7,0.00,,,0.00,WUHU216HW,2013-06-20 02:59:00,
2013-06-19 20:09:00,92.9,28.4,29.77,NW,315,1.3,1.3,8,0.00,,,0.00,WUHU216HW,2013-06-20 03:09:00,
2013-06-19 20:19:00,91.8,27.6,29.77,WNW,293,0.0,1.1,8,0.00,,,0.00,WUHU216HW,2013-06-20 03:19:00,
2013-06-19 20:29:00,90.9,26.9,29.78,West,270,0.9,2.2,8,0.00,,,0.00,WUHU216HW,2013-06-20 03:29:00,
2013-06-19 20:39:00,90.2,26.4,29.78,WNW,293,0.0,1.6,8,0.00,,,0.00,WUHU216HW,2013-06-20 03:39:00,
2013-06-19 20:49:00,89.3,25.7,29.79,NNW,338,0.4,0.9,9,0.00,,,0.00,WUHU216HW,2013-06-20 03:49:00,
2013-06-19 20:59:00,88.4,25.0,29.79,NNW,338,0.0,0.0,10,0.00,,,0.00,WUHU216HW,2013-06-20 03:59:00,
2013-06-19 21:09:00,87.5,26.1,29.80,NNE,23,0.7,1.3,11,0.00,,,0.00,WUHU216HW,2013-06-20 04:09:00,
2013-06-19 21:19:00,86.4,25.2,29.80,North,0,0.4,2.5,11,0.00,,,0.00,WUHU216HW,2013-06-20 04:19:00,
2013-06-19 21:29:00,86.0,24.9,29.80,North,0,0.7,2.5,11,0.00,,,0.00,WUHU216HW,2013-06-20 04:29:00,
2013-06-19 21:39:00,85.9,24.8,29.81,North,0,0.2,2.2,11,0.00,,,0.00,WUHU216HW,2013-06-20 04:39:00,
2013-06-19 21:49:00,85.3,26.1,29.81,NW,315,0.4,1.3,12,0.00,,,0.00,WUHU216HW,2013-06-20 04:49:00,
2013-06-19 21:59:00,84.4,25.4,29.82,NW,315,0.0,0.0,12,0.00,,,0.00,WUHU216HW,2013-06-20 04:59:00,
2013-06-19 22:09:00,83.5,26.4,29.82,NW,315,0.0,0.0,13,0.00,,,0.00,WUHU216HW,2013-06-20 05:09:00,
2013-06-19 22:19:00,82.6,29.1,29.82,SSW,203,0.4,1.1,15,0.00,,,0.00,WUHU216HW,2013-06-20 05:19:00,
2013-06-19 22:29:00,81.7,28.5,29.82,SSW,203,1.1,2.0,15,0.00,,,0.00,WUHU216HW,2013-06-20 05:29:00,
2013-06-19 22:39:00,81.4,29.8,29.82,SE,135,1.8,2.2,16,0.00,,,0.00,WUHU216HW,2013-06-20 05:39:00,
2013-06-19 22:49:00,80.8,32.8,29.82,SE,135,0.7,1.8,18,0.00,,,0.00,WUHU216HW,2013-06-20 05:49:00,
2013-06-19 23:00:00,80.3,34.0,29.82,SE,135,0.2,1.1,19,0.00,,,0.00,WUHU216HW,2013-06-20 06:00:00,
2013-06-19 23:10:00,79.6,33.4,29.83,SE,135,0.9,0.9,19,0.00,,,0.00,WUHU216HW,2013-06-20 06:10:00,
2013-06-19 23:20:00,78.8,32.7,29.83,SSE,158,0.7,0.7,19,0.00,,,0.00,WUHU216HW,2013-06-20 06:20:00,
2013-06-19 23:30:00,78.3,32.3,29.83,SE,135,0.4,1.3,19,0.00,,,0.00,WUHU216HW,2013-06-20 06:30:00,
2013-06-19 23:40:00,77.8,31.9,29.83,SE,135,0.9,1.1,19,0.00,,,0.00,WUHU216HW,2013-06-20 06:40:00,
2013-06-19 23:50:00,77.2,31.4,29.83,SSE,158,1.1,1.8,19,0.00,,,0.00,WUHU216HW,2013-06-20 06:50:00,